When you browse on this site, cookies collect data to enhance your experience and personalize the content and advertising you see.
Visit our Privacy Policy to learn more. By continuing to use the site, you agree to this use of cookies and data.
  • In Hungary
  • List of Countries
  • For 7 days
  • Water Temperature
  • Weather Map
  • News
  • Weather Widgets
  • user-avatar
    Login

    Hourly Weather Karanub

    Today, 28 February, Friday

    Time Temperature Precipitation Wind Pressure Humidity
    00:00 0°C° 0 mm 5 mps 590 mmHg 38%
    01:00 0°C° 0 mm 5 mps 589 mmHg 36%
    02:00 0°C° 0 mm 5 mps 588 mmHg 35%
    03:00 -1°C° 0 mm 6 mps 588 mmHg 35%
    04:00 -2°C° 0 mm 6 mps 587 mmHg 34%
    05:00 -1°C° 0 mm 5 mps 587 mmHg 33%
    06:00 -1°C° 0 mm 5 mps 586 mmHg 32%
    07:00 0°C° 0 mm 5 mps 587 mmHg 37%
    08:00 +1°C° 0 mm 5 mps 587 mmHg 42%
    09:00 +2°C° 0 mm 6 mps 587 mmHg 47%
    10:00 +2°C° 0 mm 6 mps 587 mmHg 49%
    11:00 +3°C° 0 mm 6 mps 587 mmHg 51%
    12:00 +4°C° 0 mm 6 mps 588 mmHg 53%
    13:00 +3°C° 0 mm 6 mps 587 mmHg 53%
    14:00 +3°C° 0 mm 6 mps 587 mmHg 53%
    15:00 +3°C° 0 mm 5 mps 586 mmHg 53%
    16:00 +1°C° 0 mm 5 mps 586 mmHg 53%
    17:00 -1°C° 0 mm 5 mps 586 mmHg 53%
    18:00 -3°C° 0 mm 4 mps 586 mmHg 53%
    19:00 -3°C° 0 mm 4 mps 587 mmHg 53%
    20:00 -3°C° 0 mm 4 mps 587 mmHg 53%
    21:00 -4°C° 0 mm 4 mps 588 mmHg 53%
    22:00 -4°C° 0 mm 4 mps 588 mmHg 56%
    23:00 -4°C° 0 mm 3 mps 588 mmHg 60%

    Tomorrow, 29 February, Saturday

    Time Temperature Precipitation Wind Pressure Humidity
    00:00 -4°C° 0 mm 3 mps 588 mmHg 64%
    01:00 -4°C° 0 mm 3 mps 589 mmHg 63%
    02:00 -5°C° 0 mm 3 mps 589 mmHg 62%
    03:00 -5°C° 0 mm 4 mps 589 mmHg 62%
    04:00 -5°C° 0 mm 4 mps 589 mmHg 64%
    05:00 -5°C° 0 mm 4 mps 589 mmHg 66%
    06:00 -5°C° 0 mm 4 mps 589 mmHg 68%
    07:00 -4°C° 0 mm 4 mps 590 mmHg 69%
    08:00 -3°C° 0 mm 4 mps 590 mmHg 70%
    09:00 -2°C° 0 mm 4 mps 591 mmHg 71%
    10:00 -1°C° 0 mm 4 mps 591 mmHg 73%
    11:00 -1°C° 0 mm 4 mps 591 mmHg 75%
    12:00 0°C° 0 mm 4 mps 591 mmHg 77%
    13:00 0°C° 0.2 mm 4 mps 590 mmHg 77%
    14:00 0°C° 0.2 mm 4 mps 590 mmHg 77%
    15:00 0°C° 0.2 mm 4 mps 589 mmHg 78%
    16:00 -1°C° 0.1 mm 4 mps 589 mmHg 80%
    17:00 -3°C° 0.1 mm 4 mps 588 mmHg 82%
    18:00 -4°C° 0.1 mm 4 mps 588 mmHg 84%
    19:00 -4°C° 0 mm 4 mps 588 mmHg 83%
    20:00 -4°C° 0 mm 4 mps 588 mmHg 83%
    21:00 -4°C° 0 mm 4 mps 588 mmHg 82%
    22:00 -4°C° 0 mm 4 mps 588 mmHg 82%
    23:00 -4°C° 0 mm 4 mps 588 mmHg 82%

    Day after tomorrow, 1 March, Sunday

    Time Temperature Precipitation Wind Pressure Humidity
    00:00 -2°C° 0 mm 3 mps 588 mmHg 82%
    01:00 -2°C° 0.2 mm 3 mps 588 mmHg 83%
    02:00 -2°C° 0.2 mm 3 mps 588 mmHg 84%
    03:00 -2°C° 0.2 mm 3 mps 588 mmHg 85%
    04:00 -4°C° 0.2 mm 3 mps 588 mmHg 87%
    05:00 -3°C° 0.2 mm 2 mps 588 mmHg 89%
    06:00 -3°C° 0.2 mm 2 mps 588 mmHg 92%
    07:00 -3°C° 0.3 mm 2 mps 589 mmHg 92%
    08:00 -2°C° 0.3 mm 2 mps 590 mmHg 93%
    09:00 -2°C° 0.3 mm 2 mps 590 mmHg 93%
    10:00 -1°C° 0.5 mm 2 mps 591 mmHg 93%
    11:00 -1°C° 0.5 mm 2 mps 591 mmHg 94%
    12:00 -1°C° 0.5 mm 2 mps 592 mmHg 94%
    13:00 -1°C° 0.5 mm 2 mps 591 mmHg 94%
    14:00 -2°C° 0.5 mm 2 mps 591 mmHg 93%
    15:00 -2°C° 0.5 mm 2 mps 591 mmHg 93%
    16:00 -3°C° 0.3 mm 2 mps 591 mmHg 94%
    17:00 -2°C° 0.3 mm 1 mps 592 mmHg 95%
    18:00 -2°C° 0.3 mm 1 mps 592 mmHg 96%
    19:00 -3°C° 0.1 mm 1 mps 592 mmHg 97%
    20:00 -5°C° 0.1 mm 0 mps 592 mmHg 97%
    21:00 -6°C° 0.1 mm 0 mps 592 mmHg 97%
    22:00 -6°C° 0 mm 0 mps 592 mmHg 96%
    23:00 -6°C° 0 mm 1 mps 592 mmHg 96%

    2 March, Monday

    Time Temperature Precipitation Wind Pressure Humidity
    00:00 -7°C° 0 mm 1 mps 592 mmHg 95%
    01:00 -7°C° 0 mm 1 mps 592 mmHg 94%
    02:00 -7°C° 0 mm 1 mps 592 mmHg 93%
    03:00 -7°C° 0 mm 0 mps 592 mmHg 92%
    04:00 -7°C° 0 mm 1 mps 592 mmHg 91%
    05:00 -7°C° 0 mm 1 mps 592 mmHg 90%
    06:00 -7°C° 0 mm 1 mps 592 mmHg 90%
    07:00 -6°C° 0 mm 1 mps 593 mmHg 88%
    08:00 -4°C° 0 mm 1 mps 594 mmHg 87%
    09:00 -3°C° 0 mm 1 mps 595 mmHg 86%
    10:00 -2°C° 0 mm 1 mps 595 mmHg 85%
    11:00 -1°C° 0 mm 1 mps 595 mmHg 84%
    12:00 0°C° 0 mm 1 mps 595 mmHg 83%
    13:00 0°C° 0 mm 1 mps 595 mmHg 83%
    14:00 0°C° 0 mm 1 mps 595 mmHg 83%
    15:00 +1°C° 0 mm 1 mps 595 mmHg 83%
    16:00 -1°C° 0 mm 1 mps 595 mmHg 87%
    17:00 -2°C° 0 mm 1 mps 594 mmHg 90%
    18:00 -4°C° 0 mm 0 mps 594 mmHg 94%
    19:00 -3°C° 0 mm 1 mps 594 mmHg 91%
    20:00 -3°C° 0 mm 1 mps 594 mmHg 89%
    21:00 -4°C° 0 mm 1 mps 594 mmHg 86%
    22:00 -6°C° 0 mm 2 mps 594 mmHg 82%
    23:00 -6°C° 0 mm 2 mps 594 mmHg 78%

    3 March, Tuesday

    Time Temperature Precipitation Wind Pressure Humidity
    00:00 -6°C° 0 mm 2 mps 594 mmHg 75%
    01:00 -6°C° 0 mm 2 mps 594 mmHg 71%
    02:00 -6°C° 0 mm 2 mps 594 mmHg 67%
    03:00 -6°C° 0 mm 2 mps 593 mmHg 64%
    04:00 -5°C° 0 mm 2 mps 593 mmHg 60%
    05:00 -3°C° 0 mm 1 mps 594 mmHg 56%
    06:00 -3°C° 0 mm 1 mps 594 mmHg 52%
    07:00 -1°C° 0 mm 1 mps 595 mmHg 52%
    08:00 +1°C° 0 mm 1 mps 596 mmHg 51%
    09:00 +2°C° 0 mm 0 mps 597 mmHg 51%
    10:00 +4°C° 0 mm 1 mps 597 mmHg 52%
    11:00 +5°C° 0 mm 1 mps 597 mmHg 53%
    12:00 +5°C° 0 mm 1 mps 597 mmHg 55%
    13:00 +5°C° 0 mm 1 mps 597 mmHg 57%
    14:00 +5°C° 0 mm 1 mps 597 mmHg 59%
    15:00 +5°C° 0 mm 1 mps 597 mmHg 61%
    16:00 +4°C° 0 mm 1 mps 596 mmHg 63%
    17:00 +2°C° 0 mm 1 mps 595 mmHg 65%
    18:00 0°C° 0 mm 1 mps 594 mmHg 68%
    19:00 0°C° 0 mm 1 mps 594 mmHg 64%
    20:00 -1°C° 0 mm 1 mps 594 mmHg 60%
    21:00 -1°C° 0 mm 1 mps 595 mmHg 56%
    22:00 -1°C° 0 mm 1 mps 594 mmHg 53%
    23:00 -1°C° 0 mm 1 mps 594 mmHg 50%

    4 March, Wednesday

    Time Temperature Precipitation Wind Pressure Humidity
    00:00 -1°C° 0 mm 1 mps 594 mmHg 47%
    01:00 -1°C° 0 mm 1 mps 594 mmHg 45%
    02:00 -3°C° 0 mm 2 mps 594 mmHg 42%
    03:00 -3°C° 0 mm 2 mps 594 mmHg 40%
    04:00 -3°C° 0 mm 2 mps 594 mmHg 38%
    05:00 -3°C° 0 mm 2 mps 594 mmHg 36%
    06:00 -3°C° 0 mm 2 mps 594 mmHg 33%
    07:00 +1°C° 0 mm 1 mps 595 mmHg 37%
    08:00 +3°C° 0 mm 1 mps 596 mmHg 40%
    09:00 +5°C° 0 mm 1 mps 597 mmHg 43%
    10:00 +5°C° 0 mm 1 mps 597 mmHg 46%
    11:00 +6°C° 0 mm 1 mps 597 mmHg 48%
    12:00 +7°C° 0 mm 1 mps 597 mmHg 51%
    13:00 +7°C° 0 mm 1 mps 596 mmHg 52%
    14:00 +7°C° 0 mm 1 mps 596 mmHg 52%
    15:00 +7°C° 0 mm 1 mps 596 mmHg 52%
    16:00 +4°C° 0 mm 2 mps 595 mmHg 50%
    17:00 +2°C° 0 mm 2 mps 594 mmHg 48%
    18:00 -1°C° 0 mm 3 mps 593 mmHg 46%
    19:00 -1°C° 0 mm 3 mps 593 mmHg 42%
    20:00 -1°C° 0 mm 3 mps 593 mmHg 38%
    21:00 -2°C° 0 mm 4 mps 593 mmHg 34%
    22:00 -2°C° 0 mm 4 mps 592 mmHg 33%
    23:00 -2°C° 0 mm 4 mps 592 mmHg 33%
    Show more